TimeEST,TemperatureF,Dew PointF,Humidity,Sea Level PressureIn,VisibilityMPH,Wind Direction,Wind SpeedMPH,Gust SpeedMPH,PrecipitationIn,Events,Conditions,WindDirDegrees,DateUTC
12:53 AM,27.0,23.0,85,30.12,8.0,Calm,Calm,-,N/A,,Clear,0,2012-11-08 05:53:00
1:53 AM,26.1,21.9,84,30.12,6.0,Calm,Calm,-,N/A,,Clear,0,2012-11-08 06:53:00
2:53 AM,25.0,21.9,88,30.13,5.0,Calm,Calm,-,N/A,,Clear,0,2012-11-08 07:53:00
3:53 AM,21.9,19.9,92,30.14,6.0,Calm,Calm,-,N/A,,Clear,0,2012-11-08 08:53:00
4:53 AM,24.1,21.0,88,30.16,6.0,Calm,Calm,-,N/A,,Clear,0,2012-11-08 09:53:00
5:53 AM,21.9,19.0,89,30.18,5.0,Calm,Calm,-,N/A,,Clear,0,2012-11-08 10:53:00
6:53 AM,21.0,18.0,88,30.20,4.0,Calm,Calm,-,N/A,,Clear,0,2012-11-08 11:53:00
7:53 AM,25.0,21.9,88,30.23,5.0,Calm,Calm,-,N/A,,Clear,0,2012-11-08 12:53:00
8:53 AM,34.0,30.0,85,30.24,4.0,Calm,Calm,-,N/A,,Clear,0,2012-11-08 13:53:00
9:53 AM,39.0,33.1,79,30.25,5.0,North,3.5,-,N/A,,Haze,350,2012-11-08 14:53:00
10:53 AM,44.1,34.0,68,30.25,7.0,North,4.6,-,N/A,,Clear,360,2012-11-08 15:53:00
11:53 AM,45.0,33.1,63,30.23,7.0,Variable,5.8,-,N/A,,Scattered Clouds,0,2012-11-08 16:53:00
12:53 PM,48.9,30.0,48,30.21,10.0,Variable,5.8,-,N/A,,Clear,0,2012-11-08 17:53:00
1:53 PM,48.9,28.9,46,30.20,10.0,WNW,8.1,-,N/A,,Clear,300,2012-11-08 18:53:00
2:53 PM,48.9,30.0,48,30.19,9.0,NW,3.5,-,N/A,,Clear,310,2012-11-08 19:53:00
3:53 PM,48.9,30.0,48,30.19,8.0,NNW,6.9,-,N/A,,Clear,330,2012-11-08 20:53:00
4:53 PM,46.0,30.9,56,30.19,8.0,West,3.5,-,N/A,,Clear,270,2012-11-08 21:53:00
5:53 PM,39.0,28.9,67,30.20,9.0,Calm,Calm,-,N/A,,Clear,0,2012-11-08 22:53:00
6:53 PM,33.1,28.0,82,30.21,8.0,Calm,Calm,-,N/A,,Clear,0,2012-11-08 23:53:00
7:53 PM,30.9,26.1,82,30.21,7.0,Calm,Calm,-,N/A,,Clear,0,2012-11-09 00:53:00
8:53 PM,28.9,27.0,92,30.20,7.0,Calm,Calm,-,N/A,,Clear,0,2012-11-09 01:53:00
9:53 PM,28.9,25.0,85,30.20,6.0,Calm,Calm,-,N/A,,Clear,0,2012-11-09 02:53:00
10:53 PM,28.0,25.0,88,30.20,5.0,Calm,Calm,-,N/A,,Clear,0,2012-11-09 03:53:00
11:53 PM,27.0,25.0,92,30.20,4.0,Calm,Calm,-,N/A,,Clear,0,2012-11-09 04:53:00